Radiation Dose at Monitoring Post of Fukushima Daini Nuclear Power Station
Date,Time,MP-1(microSv/h),MP-2(microSv/h),MP-3(microSv/h),MP-4(microSv/h),MP-5(microSv/h),MP-6(microSv/h),MP-7(microSv/h),Wind Direction,Wind Velocity(m/s),Rain
2017/02/08,00:00,0.393,0.233,0.406,0.373,0.337,0.195,0.167,west-northwest,2.6,No
2017/02/08,00:10,0.394,0.233,0.405,0.375,0.336,0.195,0.166,west,2.4,No
2017/02/08,00:20,0.394,0.234,0.407,0.375,0.338,0.194,0.166,west-southwest,1.7,No
2017/02/08,00:30,0.394,0.234,0.407,0.373,0.338,0.194,0.166,west,0.8,No
2017/02/08,00:40,0.395,0.233,0.407,0.375,0.337,0.195,0.166,-,CALM,No
2017/02/08,00:50,0.393,0.235,0.404,0.376,0.337,0.194,0.168,-,CALM,No
2017/02/08,01:00,0.392,0.235,0.406,0.375,0.337,0.195,0.166,southwest,0.7,No
2017/02/08,01:10,0.394,0.233,0.407,0.374,0.336,0.194,0.167,south-southwest,0.8,No
2017/02/08,01:20,0.394,0.235,0.408,0.374,0.337,0.195,0.167,-,CALM,No
2017/02/08,01:30,0.395,0.233,0.407,0.376,0.337,0.194,0.167,south-southwest,0.6,No
2017/02/08,01:40,0.393,0.234,0.407,0.376,0.336,0.195,0.166,-,CALM,No
2017/02/08,01:50,0.393,0.235,0.406,0.377,0.337,0.194,0.167,west-northwest,0.6,No
2017/02/08,02:00,0.392,0.234,0.406,0.375,0.338,0.194,0.167,west-southwest,1.0,No
2017/02/08,02:10,0.395,0.235,0.408,0.375,0.337,0.195,0.167,south-southwest,1.2,No
2017/02/08,02:20,0.394,0.234,0.407,0.374,0.336,0.194,0.167,south,0.5,No
2017/02/08,02:30,0.394,0.233,0.405,0.375,0.337,0.195,0.166,south-southeast,0.6,No
2017/02/08,02:40,0.393,0.233,0.405,0.376,0.338,0.193,0.167,south-southeast,0.6,No
2017/02/08,02:50,0.394,0.233,0.406,0.374,0.337,0.194,0.166,-,CALM,No
2017/02/08,03:00,0.395,0.234,0.405,0.374,0.338,0.194,0.167,north-northwest,0.8,No
2017/02/08,03:10,0.394,0.234,0.406,0.375,0.337,0.195,0.166,north-northwest,1.2,No
2017/02/08,03:20,0.394,0.234,0.407,0.376,0.337,0.194,0.166,west-southwest,0.9,No
2017/02/08,03:30,0.394,0.234,0.405,0.375,0.337,0.194,0.166,-,CALM,No
2017/02/08,03:40,0.395,0.234,0.406,0.375,0.337,0.194,0.166,north-northeast,1.0,No
2017/02/08,03:50,0.395,0.235,0.408,0.375,0.337,0.194,0.167,north-northeast,1.8,No
2017/02/08,04:00,0.395,0.233,0.409,0.376,0.338,0.194,0.166,north,1.8,No
2017/02/08,04:10,0.394,0.232,0.406,0.376,0.336,0.194,0.166,north,2.5,No
2017/02/08,04:20,0.395,0.233,0.407,0.375,0.338,0.193,0.166,north-northwest,2.3,No
2017/02/08,04:30,0.394,0.232,0.407,0.374,0.338,0.195,0.167,north-northwest,2.5,No
2017/02/08,04:40,0.393,0.232,0.405,0.377,0.337,0.194,0.166,northwest,3.4,No
2017/02/08,04:50,0.394,0.235,0.406,0.375,0.336,0.195,0.167,northwest,2.8,No
2017/02/08,05:00,0.394,0.233,0.405,0.375,0.338,0.193,0.165,northwest,2.8,No
2017/02/08,05:10,0.393,0.233,0.407,0.375,0.338,0.194,0.166,northwest,3.4,No
2017/02/08,05:20,0.394,0.234,0.408,0.376,0.338,0.194,0.167,north-northwest,2.5,No
2017/02/08,05:30,0.393,0.234,0.405,0.375,0.337,0.194,0.167,north,2.8,No
2017/02/08,05:40,0.393,0.233,0.406,0.374,0.338,0.194,0.167,north-northwest,2.5,No
2017/02/08,05:50,0.394,0.233,0.406,0.374,0.337,0.195,0.166,north-northwest,2.4,No
2017/02/08,06:00,0.394,0.233,0.408,0.374,0.339,0.195,0.167,north,3.3,No
2017/02/08,06:10,0.395,0.233,0.408,0.376,0.337,0.194,0.166,north,3.6,Yes
2017/02/08,06:20,0.393,0.234,0.407,0.375,0.336,0.194,0.166,north-northwest,2.5,No
2017/02/08,06:30,0.395,0.233,0.406,0.375,0.337,0.195,0.167,north-northwest,2.0,Yes
2017/02/08,06:40,0.394,0.232,0.407,0.375,0.337,0.195,0.166,northwest,1.9,No
2017/02/08,06:50,0.395,0.236,0.406,0.375,0.338,0.195,0.166,west-northwest,2.5,No
2017/02/08,07:00,0.394,0.234,0.407,0.374,0.337,0.195,0.166,west-northwest,2.0,No
2017/02/08,07:10,0.394,0.233,0.406,0.375,0.336,0.194,0.165,west,1.3,No
2017/02/08,07:20,0.394,0.235,0.406,0.374,0.337,0.195,0.166,-,CALM,No
2017/02/08,07:30,0.394,0.233,0.406,0.375,0.338,0.195,0.167,-,CALM,No
2017/02/08,07:40,0.394,0.233,0.406,0.373,0.336,0.194,0.166,-,CALM,No
2017/02/08,07:50,0.395,0.234,0.407,0.375,0.337,0.195,0.166,west,1.1,No
2017/02/08,08:00,0.395,0.234,0.404,0.375,0.337,0.195,0.166,northwest,1.2,No
2017/02/08,08:10,0.394,0.232,0.409,0.375,0.337,0.194,0.167,west-northwest,2.0,No
2017/02/08,08:20,0.393,0.232,0.407,0.374,0.336,0.193,0.167,west-northwest,2.0,No
2017/02/08,08:30,0.393,0.233,0.405,0.373,0.337,0.194,0.165,west-northwest,2.2,No
2017/02/08,08:40,0.396,0.233,0.405,0.375,0.337,0.194,0.166,northwest,2.0,No
2017/02/08,08:50,0.392,0.233,0.407,0.374,0.339,0.193,0.166,west-northwest,2.2,No
2017/02/08,09:00,0.393,0.232,0.408,0.373,0.336,0.193,0.166,west-northwest,1.4,No
2017/02/08,09:10,0.392,0.234,0.406,0.375,0.337,0.192,0.166,northwest,3.9,No
2017/02/08,09:20,0.394,0.233,0.405,0.374,0.338,0.194,0.166,west-northwest,4.2,No
2017/02/08,09:30,0.393,0.234,0.406,0.375,0.338,0.193,0.166,northwest,4.9,No
2017/02/08,09:40,0.393,0.233,0.405,0.375,0.337,0.194,0.165,northwest,4.9,No
2017/02/08,09:50,0.395,0.232,0.405,0.373,0.338,0.194,0.166,north-northwest,6.0,No
2017/02/08,10:00,0.394,0.233,0.408,0.374,0.337,0.194,0.167,west-northwest,4.6,No
2017/02/08,10:10,0.393,0.233,0.405,0.376,0.337,0.193,0.165,northwest,5.0,No
2017/02/08,10:20,0.394,0.232,0.404,0.374,0.336,0.194,0.166,west-northwest,4.2,No
2017/02/08,10:30,0.394,0.233,0.407,0.374,0.338,0.193,0.166,northwest,4.8,No
2017/02/08,10:40,0.393,0.233,0.407,0.374,0.338,0.194,0.167,northwest,4.0,No
2017/02/08,10:50,0.393,0.232,0.406,0.373,0.336,0.194,0.167,northwest,4.8,No
2017/02/08,11:00,0.394,0.233,0.406,0.372,0.338,0.194,0.165,west-northwest,3.9,No
2017/02/08,11:10,0.394,0.232,0.408,0.375,0.337,0.194,0.166,west-northwest,4.8,No
2017/02/08,11:20,0.394,0.234,0.406,0.372,0.335,0.194,0.166,northwest,4.0,No
2017/02/08,11:30,0.393,0.233,0.405,0.374,0.337,0.193,0.167,west-northwest,4.8,No
2017/02/08,11:40,0.391,0.232,0.405,0.374,0.336,0.194,0.166,west-northwest,3.6,No
2017/02/08,11:50,0.393,0.233,0.403,0.373,0.337,0.194,0.165,west-northwest,4.7,No
2017/02/08,12:00,0.391,0.233,0.407,0.374,0.337,0.194,0.166,west-northwest,4.8,No
2017/02/08,12:10,0.393,0.233,0.403,0.374,0.337,0.194,0.166,northwest,4.5,No
2017/02/08,12:20,0.395,0.235,0.405,0.375,0.341,0.193,0.167,west-northwest,4.2,No
2017/02/08,12:30,0.392,0.233,0.406,0.374,0.336,0.194,0.166,west-northwest,4.2,No
2017/02/08,12:40,0.395,0.233,0.404,0.377,0.339,0.195,0.167,west,5.1,Yes
2017/02/08,12:50,0.395,0.234,0.404,0.375,0.340,0.194,0.167,west,4.8,Yes
2017/02/08,13:00,0.394,0.234,0.408,0.375,0.338,0.194,0.166,west-northwest,4.5,Yes
2017/02/08,13:10,0.396,0.234,0.405,0.377,0.337,0.194,0.167,west-northwest,4.1,Yes
2017/02/08,13:20,0.395,0.233,0.408,0.375,0.339,0.195,0.167,north-northwest,4.2,No
2017/02/08,13:30,0.394,0.235,0.406,0.374,0.336,0.194,0.166,northwest,4.1,Yes
2017/02/08,13:40,0.394,0.234,0.403,0.375,0.338,0.194,0.166,north-northwest,4.7,Yes
2017/02/08,13:50,0.396,0.234,0.407,0.374,0.340,0.194,0.167,north-northwest,5.2,No
2017/02/08,14:00,0.394,0.233,0.406,0.376,0.336,0.195,0.166,north-northwest,5.0,No
2017/02/08,14:10,0.394,0.233,0.404,0.375,0.341,0.195,0.167,north-northwest,6.0,No
2017/02/08,14:20,0.396,0.234,0.408,0.374,0.338,0.194,0.167,north-northwest,7.5,No
2017/02/08,14:30,0.394,0.234,0.408,0.376,0.337,0.195,0.166,north-northwest,7.8,No
2017/02/08,14:40,0.394,0.233,0.406,0.375,0.341,0.195,0.166,north-northwest,6.3,No
2017/02/08,14:50,0.395,0.234,0.407,0.376,0.337,0.195,0.167,northwest,4.8,No
2017/02/08,15:00,0.396,0.233,0.406,0.376,0.338,0.194,0.167,north-northwest,5.8,No
2017/02/08,15:10,0.395,0.234,0.404,0.375,0.339,0.195,0.166,north-northwest,6.4,No
2017/02/08,15:20,0.395,0.233,0.406,0.376,0.338,0.193,0.167,north-northwest,4.5,No
2017/02/08,15:30,0.396,0.234,0.406,0.376,0.338,0.194,0.167,northwest,3.5,No
2017/02/08,15:40,0.394,0.235,0.407,0.377,0.337,0.195,0.167,west-northwest,3.6,No
2017/02/08,15:50,0.394,0.234,0.407,0.375,0.338,0.193,0.166,northwest,2.8,No
2017/02/08,16:00,0.395,0.234,0.407,0.375,0.336,0.195,0.166,north-northwest,2.4,No
2017/02/08,16:10,0.396,0.235,0.406,0.377,0.337,0.194,0.167,north-northwest,1.7,No
2017/02/08,16:20,0.394,0.232,0.406,0.375,0.339,0.194,0.166,north,1.4,No
2017/02/08,16:30,0.395,0.234,0.406,0.374,0.338,0.194,0.166,north,1.7,No
2017/02/08,16:40,0.396,0.234,0.408,0.376,0.338,0.194,0.167,north-northwest,0.8,No
2017/02/08,16:50,0.395,0.235,0.405,0.376,0.338,0.195,0.166,-,CALM,No
2017/02/08,17:00,0.393,0.234,0.406,0.375,0.337,0.194,0.166,north,0.8,No
2017/02/08,17:10,0.394,0.234,0.409,0.376,0.337,0.195,0.166,-,CALM,No
2017/02/08,17:20,0.396,0.235,0.407,0.377,0.338,0.194,0.167,north-northwest,0.8,No
2017/02/08,17:30,0.394,0.233,0.404,0.375,0.338,0.195,0.166,north-northwest,0.5,No
2017/02/08,17:40,0.394,0.233,0.407,0.376,0.337,0.193,0.167,north-northwest,0.8,No
2017/02/08,17:50,0.395,0.235,0.408,0.376,0.337,0.194,0.167,east-southeast,0.6,No
2017/02/08,18:00,0.395,0.233,0.406,0.376,0.336,0.194,0.167,-,CALM,No
2017/02/08,18:10,0.394,0.233,0.406,0.376,0.337,0.195,0.167,north,0.7,No
2017/02/08,18:20,0.393,0.235,0.408,0.375,0.338,0.194,0.167,northwest,0.5,No
2017/02/08,18:30,0.396,0.234,0.406,0.376,0.338,0.195,0.167,north-northwest,1.1,No
2017/02/08,18:40,0.395,0.234,0.407,0.375,0.336,0.195,0.166,northwest,1.4,No
2017/02/08,18:50,0.393,0.233,0.407,0.374,0.338,0.195,0.165,northwest,2.4,No
2017/02/08,19:00,0.396,0.233,0.407,0.377,0.338,0.196,0.167,north-northwest,4.2,No
2017/02/08,19:10,0.396,0.234,0.407,0.375,0.338,0.195,0.166,northwest,4.9,No
2017/02/08,19:20,0.395,0.233,0.406,0.376,0.337,0.195,0.166,northwest,5.7,No
2017/02/08,19:30,0.393,0.233,0.407,0.375,0.337,0.194,0.167,northwest,6.8,No
2017/02/08,19:40,0.395,0.233,0.408,0.374,0.337,0.194,0.166,northwest,5.3,No
2017/02/08,19:50,0.396,0.235,0.406,0.374,0.338,0.194,0.167,west-northwest,5.0,No
2017/02/08,20:00,0.395,0.234,0.407,0.375,0.338,0.195,0.166,northwest,3.4,No
2017/02/08,20:10,0.396,0.233,0.407,0.376,0.338,0.196,0.166,north-northwest,3.0,No
2017/02/08,20:20,0.397,0.235,0.406,0.376,0.339,0.195,0.167,north-northwest,2.6,No
2017/02/08,20:30,0.396,0.234,0.405,0.375,0.336,0.195,0.166,north,1.4,No
2017/02/08,20:40,0.395,0.234,0.406,0.375,0.336,0.195,0.167,north,1.1,No
2017/02/08,20:50,0.395,0.233,0.407,0.374,0.337,0.194,0.166,north-northwest,1.1,No
2017/02/08,21:00,0.395,0.233,0.408,0.374,0.338,0.195,0.166,-,CALM,No
2017/02/08,21:10,0.395,0.233,0.406,0.375,0.336,0.195,0.166,west-northwest,0.6,No
2017/02/08,21:20,0.393,0.234,0.407,0.376,0.338,0.194,0.166,west-northwest,1.4,No
2017/02/08,21:30,0.394,0.234,0.407,0.376,0.338,0.194,0.166,north,3.2,No
2017/02/08,21:40,0.395,0.234,0.407,0.376,0.339,0.194,0.167,north-northwest,2.9,No
2017/02/08,21:50,0.394,0.233,0.407,0.377,0.338,0.195,0.166,north,5.0,No
2017/02/08,22:00,0.394,0.233,0.404,0.378,0.336,0.194,0.166,north,5.6,No
2017/02/08,22:10,0.395,0.233,0.408,0.376,0.336,0.193,0.167,north,6.4,No
2017/02/08,22:20,0.396,0.233,0.406,0.373,0.338,0.194,0.167,north,5.0,No
2017/02/08,22:30,0.395,0.234,0.407,0.376,0.336,0.194,0.166,north,3.2,No
2017/02/08,22:40,0.396,0.232,0.405,0.376,0.337,0.196,0.166,north,5.8,No
2017/02/08,22:50,0.397,0.234,0.408,0.374,0.338,0.194,0.166,northwest,2.3,No
2017/02/08,23:00,0.396,0.234,0.407,0.375,0.338,0.194,0.167,north-northwest,3.2,No
2017/02/08,23:10,0.396,0.235,0.405,0.375,0.338,0.195,0.166,north-northwest,3.9,No
2017/02/08,23:20,0.395,0.233,0.406,0.375,0.338,0.194,0.165,north-northwest,4.3,No
2017/02/08,23:30,0.394,0.234,0.406,0.376,0.337,0.195,0.165,northwest,2.9,No
2017/02/08,23:40,0.394,0.233,0.406,0.373,0.338,0.194,0.166,west-northwest,1.5,No
2017/02/08,23:50,0.396,0.233,0.406,0.377,0.336,0.194,0.167,north,0.9,No
